Location: Unspecified
(0.0000°N, 0.0000°E)
Time: 23:07:58
(UTC+00:00)

Tiangong 2 - Pass Details

Date: 21 April 2018
Orbit: 381 x 388 km, 42.8° (Epoch: 26 April)

Event Time Altitude Azimuth Distance (km) Brightness Sun altitude
Rises 19:45:02 0° 299° (WNW) 2,240 6.1 -26.0°
Reaches altitude 10° 19:47:16 10° 286° (WNW) 1,389 4.9 -26.5°
Enters shadow 19:48:36 19° 268° (W) 964 3.8 -26.8°
